CAPE
2352 2357 2294 2347 2447 2326 2525 2530 2347 2505 3044 2784 2707 2745 3037 3272 3659 3507 3551 3860 4052 3888 4097 4219 4157 4042 3643 3703 3766 3564 3574 3563 3602 3258 3420 3266 3209 3053 2932 3255 3461 3441
2268 2369 2632 2287 2866 2885 2740 2444 2630 2678 3204 3384 3052 3187 3430 3439 3359 3422 3668 3761 3912 3829 4168 3968 4075 3972 3861 3374 3739 3518 3654 3603 3621 3184 3415 3399 3345 3272 3208 3361 3279 3793
2117 2195 2180 2163 1800 2138 1705 2066 2482 2590 2599 2531 2832 3242 3057 2999 3052 3591 3631 3624 3542 3364 4017 4111 4037 4190 3919 3808 3998 3631 3074 3650 3428 3231 3765 3690 3365 3165 3156 2850 3159 3360
2270 2074 1780 1749 1736 1914 1964 2339 2570 2654 2567 2780 2598 2461 2704 2502 2979 3310 3729 3726 3817 3948 3811 3821 3718 3583 3800 3932 4091 3831 3506 3614 3268 3596 3678 3856 3585 3259 3081 3091 3058 3086
1978 2088 1936 1918 1971 2170 2267 2138 1886 2328 2416 2433 2477 2987 3276 3333 3326 3121 3527 3720 4087 3893 4024 4050 4169 3834 4201 4069 4154 3905 3710 3213 3274 3758 3740 3687 3765 3333 3119 3200 3190 3123
2019 2266 2456 2281 2394 2347 2026 1928 2115 2146 2249 2163 2401 2590 2758 3396 3254 3214 3245 3151 3132 3203 3246 3489 3692 3486 3552 3933 4043 3832 3365 3047 3111 3708 3608 3592 3357 3400 3012 3254 3409 3268
1585 1798 1804 2050 2071 2126 2136 2212 2335 2479 2254 2193 2836 2794 2796 2899 3271 3417 3498 3299 2968 3172 2984 3423 4025 3875 3779 4036 4187 4141 3991 3754 3715 3857 3716 3621 3803 3727 3658 3597 3732 3616
1658 1647 1633 1973 1890 2203 2192 2321 2349 2638 2701 2961 2546 2785 2896 2556 3057 2848 3157 3345 3065 3277 3521 3394 3972 4435 3796 3642 3828 3843 3640 3160 3543 3979 3946 3781 3848 3836 3737 3666 3624 3865
2046 1973 1642 1637 1526 1632 1583 1534 1818 2144 2691 2518 2105 2106 2795 2671 2790 2586 3375 3593 3231 3412 3855 3632 4049 3852 3791 3858 3865 4013 3690 3137 2914 3472 3628 3396 3354 3590 3440 3468 3451 3532
2268 2171 1951 1597 1464 1404 1354 1321 1319 1631 2310 2030 2013 1803 2222 2865 2797 2809 3197 3580 3411 3518 3682 3639 3729 3627 3622 3716 4019 4002 3763 3750 3626 3679 3503 3404 3215 3136 3046 3276 3194 3251
2116 2396 2218 2326 2288 2291 1764 1404 1373 1376 1696 1684 1630 1645 1930 2217 2894 2936 3135 3318 2914 3130 3352 3534 3472 3521 3696 3433 3508 3596 3818 3390 3278 3640 3598 3673 3548 3575 3575 3497 3420 3136
2058 2225 2411 2467 2480 2548 2465 1951 1573 1619 1653 1745 1686 1835 2188 1925 2210 2445 2567 2971 2990 2950 3041 3274 3404 3502 3538 3512 3196 3257 3497 3512 3495 3829 3485 3559 3525 3524 3547 3454 3171 3275
2135 2227 2317 2542 2696 2730 2714 2388 2019 1865 1749 1664 1786 1879 1879 1684 1713 2231 2483 2447 2769 2788 2654 2941 3211 3090 3477 3575 3337 3183 3356 3517 3233 3499 3587 3508 3351 3208 2934 3004 3125 3062
1934 1709 1456 1543 1668 1846 2243 2414 2273 1866 1877 1786 1622 1636 1654 1646 1607 1690 1961 2087 2244 2396 2576 2679 2980 2935 3270 3422 3229 3074 3097 3203 3336 3274 3167 3171 3116 3247 2990 2582 2748 2755
941 869 908 1108 1069 1033 1145 1506 1941 2000 1991 1947 1903 1685 1365 1368 1347 1302 1537 1642 1760 1999 2151 2193 2062 2272 2384 2801 3031 3278 3043 2857 3014 3069 3059 3081 3219 2812 2815 3182 3043 2574
652 784 914 929 825 952 1095 1139 1249 1376 1696 1944 1942 1850 2000 1990 2050 1972 1430 1490 1578 1673 1682 1542 1627 1680 2112 1803 1928 2315 2840 2626 2630 2985 2980 2909 3076 3176 2833 2834 2613 2413
588 692 815 849 765 929 1140 1206 1173 1207 1252 1368 1522 1873 2118 2286 2140 2051 1888 1826 1741 1474 1378 1293 1286 1082 1139 1062 1057 1011 1503 2259 2796 3000 3193 3185 2927 3165 3223 2693 2560 2659
896 882 858 814 920 980 996 1185 1344 1340 1280 1173 1273 1324 1666 1680 1900 2059 2280 1996 1865 1858 1700 1534 1452 977 892 748 732 701 731 1542 1936 2327 2478 2635 2700 2514 2552 2547 2537 2366
640 766 770 712 743 966 1204 1412 1486 1456 1352 1461 1626 1521 1669 1780 2031 1791 2073 2054 2213 2297 2052 2001 1544 1102 1031 850 763 757 733 806 1434 1908 2128 2259 2286 2463 2501 2461 2574 2575
628 541 466 407 611 871 1110 1330 1438 1457 1452 1379 1336 1663 1352 1339 1460 1650 1790 1841 2046 2218 2409 2001 1377 1333 1200 929 826 804 757 756 1726 2069 2055 2164 2331 2447 2318 2368 2643 2742
457 518 520 447 437 647 865 1121 1268 1324 1284 1169 1088 1131 1190 1197 1241 1152 1132 1184 1295 1647 2144 1462 1434 1379 1252 984 1018 1074 1020 878 1847 1879 1799 1944 2068 2145 2324 2211 2296 2268
475 385 478 564 518 447 709 892 994 995 1000 1008 1025 1028 1000 1020 1062 1030 1013 1056 1093 1152 1216 1246 1235 1230 1194 1064 1095 1112 1176 1701 1917 2057 1909 1812 1891 1871 1737 1804 1776 1782
380 76 366 256 453 596 742 865 901 894 897 907 878 826 827 803 891 942 955 932 970 1036 1080 1155 1162 1184 1205 1162 1132 1167 1158 1788 1918 1893 2013 2036 1967 1934 1895 1732 1644 1576
309 291 214 209 162 299 441 586 588 638 670 705 686 670 680 749 752 802 896 928 973 984 951 983 998 990 1107 1194 1171 1120 1124 1491 1610 1686 1765 1837 1815 1798 1910 1966 1642 1172
263 300 313 358 408 302 332 432 464 472 483 403 556 545 486 454 456 472 555 607 665 752 829 848 932 973 1052 1051 1074 1098 1080 1101 1124 1126 1337 1437 1478 1607 1656 1748 1744 1278
245 277 293 270 277 300 313 336 335 344 354 389 438 449 433 388 310 297 421 510 513 515 515 541 672 765 807 865 909 945 977 1017 1039 1033 997 982 948 988 1255 1371 1314 1490
Wind_Speed
5 3 2 2 3 4 4 3 4 3 3 4 4 5 6 6 6 5 4 5 5 5 4 4 4 4 5 6 7 7 8 8 9 8 9 10 10 10 10 10 9 9
6 5 5 5 6 6 6 5 5 5 4 4 5 6 7 7 6 5 5 5 5 4 4 4 4 4 4 5 5 6 7 7 8 8 8 9 9 9 9 10 11 10
8 7 6 5 4 3 3 5 6 5 6 5 5 6 7 7 6 6 6 5 5 5 5 5 5 4 4 4 5 5 6 7 8 8 9 9 9 9 10 10 10 10
9 8 7 5 5 5 5 7 7 8 8 7 5 6 7 8 7 6 6 6 6 5 5 5 5 5 4 5 5 5 5 6 7 8 8 8 8 9 10 9 10 9
9 9 10 9 9 8 8 7 7 8 7 8 8 9 8 7 7 7 7 7 6 6 5 4 5 4 5 5 5 5 5 5 5 6 6 7 7 8 8 8 8 8
12 12 13 13 13 11 9 8 7 8 8 8 8 10 9 9 8 8 8 7 7 6 5 5 5 4 4 5 5 5 4 5 6 5 4 5 6 7 8 8 7 6
12 12 10 11 12 13 11 10 10 10 10 11 13 12 12 11 10 9 8 8 8 8 7 7 6 5 5 6 6 5 5 4 5 5 4 4 5 5 6 7 7 7
12 12 11 11 11 14 13 13 12 12 11 13 13 14 13 12 11 10 9 9 8 8 8 7 7 6 5 5 5 6 5 6 5 5 4 3 4 4 5 6 7 7
13 12 11 10 10 13 12 12 13 12 13 13 13 14 15 14 13 12 12 10 10 10 9 8 8 7 6 5 5 5 4 4 5 5 4 3 3 3 3 5 5 6
13 13 11 11 11 13 13 13 14 14 14 13 12 13 15 16 14 14 13 12 11 11 10 9 9 8 7 6 5 5 5 4 4 4 4 4 3 3 3 4 4 5
13 14 13 12 13 15 14 14 15 15 16 14 12 12 13 15 16 15 15 14 12 11 10 10 9 9 9 7 7 6 5 5 5 5 4 3 3 4 3 3 3 3
17 16 15 15 14 14 15 15 16 17 17 17 15 13 13 13 15 16 16 15 13 12 11 11 10 10 10 9 9 8 8 7 6 5 4 4 4 4 4 4 4 4
22 19 20 20 20 19 19 18 18 18 19 19 19 17 15 13 14 16 17 16 15 13 12 12 11 11 12 11 11 11 10 9 8 7 6 5 4 4 4 4 5 5
28 29 24 24 23 23 22 22 22 21 22 23 23 21 18 16 14 15 17 17 16 16 14 14 13 13 13 13 13 13 12 11 10 8 7 6 5 5 5 6 6 6
29 29 31 30 27 29 28 25 24 23 21 21 23 23 22 19 17 17 19 20 19 19 17 16 15 15 15 15 14 13 13 12 11 11 9 8 7 7 7 8 8 7
28 29 29 30 28 28 32 30 25 21 21 21 22 24 24 23 21 19 18 19 19 18 18 17 17 17 17 15 14 15 14 14 13 13 12 11 11 10 9 9 8 8
26 26 29 29 27 28 31 30 25 23 22 21 22 25 26 26 23 20 18 18 18 17 17 17 17 22 27 19 16 14 14 13 14 14 14 14 14 13 12 10 10 10
23 23 25 25 23 23 27 32 30 26 24 23 22 22 25 25 24 22 21 20 19 19 18 19 22 30 24 22 17 16 16 14 14 15 15 16 16 15 14 13 11 10
19 19 20 20 20 20 22 28 33 31 28 26 25 25 26 26 25 24 23 23 23 22 21 22 26 27 25 25 23 18 18 16 17 16 16 16 16 17 16 15 14 13
21 20 21 20 20 21 22 26 31 33 32 31 30 29 30 31 30 28 28 27 26 25 24 25 27 26 26 26 25 23 21 18 20 19 18 17 18 18 18 18 18 17
28 27 27 25 23 22 22 25 28 31 32 31 30 30 31 31 30 29 28 27 27 26 24 24 28 27 28 28 27 24 21 17 22 21 21 21 20 20 20 19 19 19
28 27 26 25 25 25 25 24 26 29 31 31 31 31 31 30 29 28 28 28 28 27 25 24 29 31 30 29 28 25 18 21 23 23 23 23 24 23 23 23 22 22
31 nan 27 24 21 24 25 22 21 24 26 26 28 29 28 28 28 28 28 28 28 28 28 28 29 33 32 31 30 27 24 26 25 24 24 24 24 24 24 24 24 24
29 29 28 25 21 19 19 18 17 18 20 21 23 24 25 26 26 27 28 28 29 29 28 28 32 38 37 36 33 31 27 29 28 26 25 25 24 24 24 25 26 27
34 32 31 29 26 22 20 20 19 19 19 20 21 21 22 21 22 23 25 27 28 30 32 31 36 37 39 39 40 38 33 32 30 28 26 25 24 25 25 25 27 30
38 36 34 34 33 30 26 23 22 23 23 24 23 23 22 20 20 21 24 27 28 28 29 31 32 34 38 42 41 41 37 35 34 33 31 31 30 30 29 29 30 30
Wind_Direction
247 242 241 231 211 209 215 212 201 207 199 192 188 193 192 205 222 220 211 210 208 200 210 207 204 201 204 199 192 185 181 173 171 179 179 179 179 178 177 182 183 188
239 234 225 221 216 214 213 211 215 211 220 209 193 199 204 206 213 218 225 222 220 211 219 224 220 213 212 210 207 198 194 186 174 188 185 183 186 185 185 188 187 194
239 234 235 233 214 209 197 228 228 222 219 210 207 205 208 215 216 228 225 227 224 221 237 234 232 231 232 235 229 212 205 199 187 192 194 190 191 190 191 194 194 195
241 240 240 241 232 223 220 227 233 229 226 225 210 212 214 218 228 233 232 233 227 232 232 240 236 237 249 255 256 237 221 206 206 204 200 199 196 194 195 200 199 199
243 242 238 238 236 235 232 225 222 232 229 225 223 228 223 225 227 233 235 236 233 230 242 247 253 254 264 268 274 261 247 224 228 227 217 207 204 203 203 209 205 204
238 237 237 237 239 240 238 238 235 231 227 225 223 228 227 231 227 226 230 229 230 228 228 239 250 256 266 273 277 272 258 242 243 241 230 218 209 212 211 217 215 215
240 241 242 241 244 245 240 241 239 237 232 221 225 222 226 229 229 226 225 222 216 218 215 224 233 239 254 263 274 281 279 267 256 257 250 234 230 217 219 224 227 224
235 241 244 245 250 250 246 243 240 242 240 236 228 225 225 224 224 221 222 221 217 217 218 216 221 231 235 253 267 277 284 282 283 282 271 254 237 226 229 237 240 236
230 231 234 241 246 246 248 243 242 241 244 240 235 232 234 227 225 222 226 224 216 217 222 220 222 219 229 239 254 269 276 276 275 279 275 261 263 258 240 242 241 244
239 236 232 228 233 237 240 238 235 237 243 242 241 238 240 240 234 230 232 231 222 220 220 221 227 226 226 233 244 255 261 269 271 272 268 264 259 254 249 250 238 237
246 249 246 237 232 233 238 238 234 231 235 239 243 243 241 241 241 239 237 237 230 226 224 226 228 231 231 228 233 241 249 251 254 262 262 261 256 258 259 250 249 246
247 252 252 247 239 236 241 241 237 233 231 236 240 245 246 239 237 237 238 238 234 229 227 227 231 237 238 232 230 236 242 244 251 256 256 255 254 254 251 252 247 248
241 245 249 249 246 241 240 241 239 234 231 229 234 239 242 239 237 237 238 235 235 232 229 230 231 235 241 241 239 240 242 243 243 250 253 253 252 246 237 237 235 238
248 250 251 250 251 247 241 241 243 244 238 232 230 233 236 238 236 237 237 237 235 234 233 234 237 238 243 245 245 247 251 253 252 248 245 248 245 246 241 235 232 229
258 257 250 238 232 241 245 238 237 239 241 238 236 231 232 235 237 237 238 238 236 234 233 234 236 240 243 248 251 257 260 260 264 264 260 252 245 240 247 250 246 238
265 265 263 259 253 248 243 238 231 231 234 236 239 237 236 233 232 234 235 238 237 236 235 235 237 238 249 256 252 249 259 263 268 273 274 271 265 257 252 255 253 250
268 271 272 273 269 263 254 246 240 237 237 236 236 238 238 237 235 234 234 238 239 234 232 234 235 238 240 247 254 251 249 256 264 271 276 278 277 274 269 263 263 266
268 271 277 280 278 268 255 246 245 244 241 239 238 238 238 235 235 236 237 238 240 238 234 233 237 232 232 246 255 267 271 263 263 266 269 274 276 277 275 272 270 270
278 277 283 280 280 278 267 256 250 246 242 241 240 240 241 241 238 237 237 237 238 239 238 239 241 234 236 241 250 261 276 273 265 264 264 268 271 275 276 275 271 267
260 271 273 274 276 278 271 260 252 245 240 240 239 242 245 245 242 239 237 235 237 240 240 243 244 238 239 243 246 253 269 274 268 270 269 265 265 266 269 272 272 270
243 243 246 249 255 263 266 260 248 240 237 235 237 242 245 245 244 241 238 238 238 240 243 247 244 246 245 244 244 247 261 268 266 269 269 268 266 267 268 269 270 271
241 243 246 249 250 245 245 244 237 232 234 235 238 239 241 243 241 242 243 243 242 243 246 246 245 244 244 246 245 243 248 256 261 264 266 267 269 268 266 267 267 268
240 nan 244 247 243 242 236 229 226 226 232 234 237 238 242 241 241 240 241 242 243 245 246 246 247 244 240 242 243 237 246 254 254 257 259 261 263 263 266 267 267 265
240 242 242 240 238 233 232 230 226 225 228 230 235 239 238 238 241 243 244 243 243 245 245 246 248 241 237 240 240 238 243 251 253 254 256 258 258 258 259 261 261 260
242 243 243 242 244 244 244 244 238 233 229 228 234 237 236 236 240 244 245 245 245 245 244 248 252 248 244 245 242 239 243 253 253 255 255 254 256 260 261 260 260 263
242 241 238 236 238 240 242 242 241 237 233 234 236 237 239 242 248 252 250 245 243 244 246 249 253 249 247 247 245 243 240 250 252 254 253 254 254 255 259 260 258 262